TimeEDT,TemperatureF,Dew PointF,Humidity,Sea Level PressureIn,VisibilityMPH,Wind Direction,Wind SpeedMPH,Gust SpeedMPH,PrecipitationIn,Events,Conditions,WindDirDegrees,DateUTC
12:53 AM,72.0,60.1,66,29.94,10.0,SW,3.5,-,N/A,,Clear,220,2013-06-17 04:53:00
1:53 AM,72.0,60.1,66,29.94,10.0,SSW,4.6,-,N/A,,Clear,200,2013-06-17 05:53:00
2:53 AM,71.1,59.0,66,29.94,10.0,SSW,3.5,-,N/A,,Clear,200,2013-06-17 06:53:00
3:53 AM,71.1,59.0,66,29.94,10.0,SSW,4.6,-,N/A,,Clear,200,2013-06-17 07:53:00
4:53 AM,68.0,60.1,76,29.95,10.0,Calm,Calm,-,N/A,,Clear,0,2013-06-17 08:53:00
5:53 AM,66.0,60.1,81,29.95,10.0,Calm,Calm,-,N/A,,Partly Cloudy,0,2013-06-17 09:53:00
6:53 AM,66.9,61.0,81,29.95,10.0,Calm,Calm,-,N/A,,Clear,0,2013-06-17 10:53:00
7:53 AM,70.0,63.0,78,29.96,10.0,SSW,3.5,-,N/A,,Clear,210,2013-06-17 11:53:00
8:53 AM,73.9,64.9,73,29.96,10.0,Variable,3.5,-,N/A,,Clear,0,2013-06-17 12:53:00
9:53 AM,77.0,64.0,64,29.96,10.0,SSW,5.8,-,N/A,,Mostly Cloudy,200,2013-06-17 13:53:00
10:53 AM,80.1,64.0,58,29.95,10.0,SW,8.1,-,N/A,,Mostly Cloudy,230,2013-06-17 14:53:00
11:53 AM,80.1,64.0,58,29.95,10.0,Variable,5.8,-,N/A,,Scattered Clouds,0,2013-06-17 15:53:00
12:12 PM,80.6,64.4,58,29.96,2.5,WSW,4.6,-,N/A,,Haze,250,2013-06-17 16:12:00
12:21 PM,80.6,64.4,58,29.96,10.0,SW,6.9,-,N/A,,Mostly Cloudy,220,2013-06-17 16:21:00
12:53 PM,84.0,66.0,55,29.94,10.0,West,6.9,-,N/A,,Scattered Clouds,260,2013-06-17 16:53:00
1:53 PM,82.9,64.9,54,29.93,10.0,NW,5.8,-,N/A,,Mostly Cloudy,320,2013-06-17 17:53:00
2:53 PM,84.9,64.9,51,29.92,10.0,WNW,5.8,-,N/A,,Partly Cloudy,300,2013-06-17 18:53:00
3:53 PM,84.9,64.0,49,29.91,10.0,West,4.6,-,N/A,,Clear,270,2013-06-17 19:53:00
4:53 PM,87.1,61.0,41,29.88,10.0,NW,8.1,-,N/A,,Clear,310,2013-06-17 20:53:00
5:53 PM,84.9,61.0,44,29.89,10.0,NW,6.9,-,N/A,,Clear,310,2013-06-17 21:53:00
6:53 PM,84.0,61.0,46,29.89,10.0,NW,6.9,-,N/A,,Clear,310,2013-06-17 22:53:00
7:53 PM,82.9,62.1,49,29.89,10.0,Calm,Calm,-,N/A,,Clear,0,2013-06-17 23:53:00
8:53 PM,73.9,64.9,73,29.91,10.0,Calm,Calm,-,N/A,,Clear,0,2013-06-18 00:53:00
9:53 PM,72.0,64.0,76,29.92,10.0,Calm,Calm,-,N/A,,Clear,0,2013-06-18 01:53:00
10:53 PM,72.0,64.0,76,29.93,10.0,South,4.6,-,N/A,,Clear,180,2013-06-18 02:53:00
11:53 PM,72.0,64.9,78,29.93,10.0,Calm,Calm,-,N/A,,Clear,0,2013-06-18 03:53:00